Location: Huntsville
(34.7300°N, 86.5860°W)
Time: 12:05:33
(UTC-06:00)

Daily predictions for brighter satellites

Satellite Brightness Start Highest point End
(mag) Time Altitude Azimuth Time Altitude Azimuth Time Altitude Azimuth
SL-14 R/B 3.3 17:29:07 10° S 17:33:06 85° E 17:37:04 10° N
Ariane Rocket 3.2 17:28:50 10° SSE 17:33:54 82° WSW 17:39:00 10° NNW
Cosmos 2221 2.7 17:30:07 10° N 17:34:29 82° W 17:38:52 10° S
CZ-2C R/B 3.8 17:31:00 10° NNE 17:35:44 85° ESE 17:40:19 10° SSW
Cosmos 1484 Rocket 4.1 17:32:42 10° S 17:36:21 44° W 17:39:59 10° NNW
Cosmos 2181 Rocket 4.4 17:31:54 10° SSW 17:38:19 74° W 17:44:46 10° N
OAO 3 Rocket 3.1 17:34:13 10° W 17:38:54 87° N 17:43:39 10° E
FENGYUN 3A 4.0 17:36:43 10° SE 17:41:42 42° ENE 17:46:43 10° N
Cosmos 44 3.1 17:37:48 10° SSW 17:42:05 81° WNW 17:46:29 10° NNE
ASTRO E2 3.4 17:41:19 10° WSW 17:45:08 45° S 17:48:57 10° E
CZ-4 R/B 2.0 17:44:43 10° S 17:48:53 66° W 17:53:06 10° NNW
SMAP 4.3 17:45:44 10° S 17:50:12 45° W 17:54:40 10° NNW
Cosmos 1408 Rocket 3.5 17:46:08 10° S 17:50:22 63° E 17:54:38 10° NNE
Cosmos 2151 4.0 17:47:06 10° SE 17:50:35 25° E 17:54:06 10° NE
Cosmos 1726 3.9 17:48:57 10° NNW 17:52:20 36° W 17:55:42 10° SSW
METEOR-M 4.2 17:49:47 10° SSE 17:55:08 86° WSW 18:00:31 10° NNW
SPOT 3 Rocket 3.8 17:51:32 10° SE 17:56:24 46° ENE 18:01:19 10° N
SL-8 Rocket 4.1 17:51:14 10° N 17:57:27 81° W 18:03:40 10° S
Cosmos 1777 Rocket 4.1 17:56:25 10° N 18:01:31 50° ENE 18:06:36 10° SE
Meteor 1-11 4.2 17:56:07 10° S 18:01:37 66° E 18:07:13 10° NNE
NOSS 3 (A) 4.4 17:59:06 10° SW 18:01:50 77° WNW 18:04:15 14° NNE
COSMO-SKYMED 1 2.9 17:59:01 10° N 18:03:20 68° WNW 18:07:38 10° SSW
Cosmos 1500 Rocket 4.3 17:59:37 10° SSE 18:03:31 31° E 18:07:26 10° NNE
Cosmos 2218 Rocket 4.0 17:58:23 10° N 18:04:33 86° W 18:10:41 10° S
Cosmos 1315 Rocket 3.6 18:00:55 10° SSW 18:04:45 53° W 18:08:36 10° N
Cosmos 1346 Rocket 3.0 18:02:15 10° N 18:06:00 44° E 18:09:43 10° SSE
H-2A R/B 3.5 18:03:52 10° SE 18:07:10 29° ENE 18:10:33 10° NNE
COSMOS 2406 3.3 18:01:37 10° S 18:07:15 60° ESE 18:12:52 10° NNE
Cosmos 44 Rocket 4.1 18:11:57 10° SW 18:16:26 46° WNW 18:21:00 10° NNE
Cosmos 2228 Rocket 3.4 18:13:21 10° N 18:17:44 43° E 18:22:05 10° SSE
Cosmos 1743 Rocket 3.5 18:13:48 10° S 18:18:06 61° E 18:22:24 10° NNE
Cosmos 1455 2.6 18:16:14 10° N 18:19:51 39° E 18:23:25 10° SSE
Cosmos 1328 Rocket 3.4 18:21:34 10° N 18:25:56 75° E 18:30:14 10° S
Tiangong 1 2.4 18:30:29 10° NW 18:31:43 22° NNW 18:31:43 22° NNW
Cosmos 1626 4.0 18:32:00 10° SW 18:35:21 32° W 18:38:43 10° NNW
GEOS 3 Rocket 4.5 18:35:23 29° NE 18:35:38 29° NE 18:40:12 10° NNW
ALOS 3.3 18:32:19 10° S 18:36:48 47° W 18:41:18 10° NNW
TIMED 4.5 18:32:31 10° N 18:36:49 56° ENE 18:40:22 14° SSE
Cosmos 332 Rocket 3.8 18:32:15 10° SSW 18:37:08 84° WNW 18:41:20 14° NNE
Cosmos 2098 Rocket 3.9 18:31:40 10° N 18:37:17 88° W 18:44:10 10° S
Meteor 2-15 Rocket 4.5 18:32:45 10° SSE 18:38:43 55° E 18:44:39 10° NNE
Lacrosse 5 2.4 18:37:42 10° S 18:42:21 37° ESE 18:42:42 37° ESE
NOSS 3-4 (A) 3.9 18:38:30 10° NNW 18:45:43 86° WSW 18:53:25 10° SSE
NOSS 3-4 (C) 3.9 18:38:36 10° NNW 18:45:49 87° WSW 18:53:32 10° SSE
Cosmos 1821 Rocket 3.9 18:39:59 10° N 18:46:04 59° E 18:52:13 10° SSE
Cosmos 1570 Rocket 3.9 18:45:50 10° SSW 18:51:10 90° NNW 18:54:21 25° NNE
SEDSat Delta rocket 4.0 18:46:31 10° WSW 18:53:08 65° S 18:55:14 42° ESE
Nadezhda 3 Rocket 4.3 18:48:15 10° SSW 18:54:30 67° W 19:00:51 10° N
ERS-2 3.3 18:51:07 10° S 18:54:37 43° W 18:58:09 10° NNW
Cosmos 1151 Rocket 3.3 18:56:21 10° NNW 19:00:43 69° W 19:05:03 10° S
CZ-4C R/B 2.2 19:05:21 10° SSW 19:09:27 53° SSE 19:09:27 53° SSE
ISS -0.9 19:10:09 10° SSW 19:10:21 11° SSW 19:10:21 11° SSW
Thor Agena Rocket 4.0 19:16:03 24° N 19:19:07 60° WNW 19:24:14 10° SSW
OAO 3 Rocket 3.8 19:17:45 10° W 19:21:47 50° SW 19:21:47 50° SW
Cosmos 1934 Rocket 3.9 19:17:34 10° N 19:23:59 88° E 19:30:21 10° S
ASTRO E2 4.4 19:21:34 10° W 19:23:52 30° WSW 19:23:52 30° WSW
Cosmos 2082 Rocket 3.9 19:30:34 10° S 19:32:30 22° S 19:32:30 22° S
Cosmos 909 Rocket 4.2 19:31:34 10° NNW 19:38:02 68° WSW 19:39:15 55° SSW
